Time,TemperatureF,DewpointF,PressureIn,WindDirection,WindDirectionDegrees,WindSpeedMPH,WindSpeedGustMPH,Humidity,HourlyPrecipIn,Conditions,Clouds,dailyrainin,SoftwareType,DateUTC
2013-01-24 00:02:00,12.9,5.9,30.56,NE,37,9.0,13.0,75,0.00,,,0.00,meteohub,2013-01-24 06:02:00,
2013-01-24 00:07:00,12.9,5.5,30.57,North,9,12.0,17.0,75,0.00,,,0.00,meteohub,2013-01-24 06:07:00,
2013-01-24 00:12:00,12.0,5.5,30.56,ENE,59,5.0,17.0,74,0.00,,,0.00,meteohub,2013-01-24 06:12:00,
2013-01-24 00:17:00,12.0,5.4,30.57,NE,35,5.0,17.0,75,0.00,,,0.00,meteohub,2013-01-24 06:17:00,
2013-01-24 00:22:00,12.0,5.4,30.57,NE,39,4.0,14.0,75,0.00,,,0.00,meteohub,2013-01-24 06:22:00,
2013-01-24 00:27:00,12.0,5.2,30.58,NNE,17,8.0,13.0,75,0.00,,,0.00,meteohub,2013-01-24 06:27:00,
2013-01-24 00:32:00,10.9,4.8,30.58,ENE,62,9.0,13.0,75,0.00,,,0.00,meteohub,2013-01-24 06:32:00,
2013-01-24 00:37:00,10.9,4.8,30.58,NNE,12,6.0,14.0,75,0.00,,,0.00,meteohub,2013-01-24 06:37:00,
2013-01-24 00:42:00,10.9,4.6,30.59,NE,46,7.0,14.0,75,0.00,,,0.00,meteohub,2013-01-24 06:42:00,
2013-01-24 00:52:00,10.9,4.1,30.59,NE,34,6.0,12.0,75,0.00,,,0.00,meteohub,2013-01-24 06:52:00,
2013-01-24 00:57:00,10.0,3.7,30.59,NNE,31,9.0,12.0,75,0.00,,,0.00,meteohub,2013-01-24 06:57:00,
2013-01-24 01:02:00,10.0,3.7,30.59,NNE,17,6.0,12.0,75,0.00,,,0.00,meteohub,2013-01-24 07:02:00,
2013-01-24 01:12:00,10.0,3.4,30.59,NE,36,3.0,12.0,75,0.00,,,0.00,meteohub,2013-01-24 07:12:00,
2013-01-24 01:17:00,10.0,3.4,30.60,NE,53,6.0,10.0,75,0.00,,,0.00,meteohub,2013-01-24 07:17:00,
2013-01-24 01:22:00,10.0,3.0,30.61,NNE,28,6.0,10.0,75,0.00,,,0.00,meteohub,2013-01-24 07:22:00,
2013-01-24 01:32:00,9.0,2.3,30.61,NNE,30,9.0,12.0,74,0.00,,,0.00,meteohub,2013-01-24 07:32:00,
2013-01-24 01:37:00,9.0,2.5,30.60,NE,41,4.0,12.0,74,0.00,,,0.00,meteohub,2013-01-24 07:37:00,
2013-01-24 01:42:00,9.0,2.3,30.61,NNE,24,8.0,12.0,75,0.00,,,0.00,meteohub,2013-01-24 07:42:00,
2013-01-24 01:47:00,9.0,2.5,30.61,NE,46,5.0,11.0,75,0.00,,,0.00,meteohub,2013-01-24 07:47:00,
2013-01-24 01:52:00,9.0,2.3,30.61,ENE,65,8.0,9.0,75,0.00,,,0.00,meteohub,2013-01-24 07:52:00,
2013-01-24 02:02:00,8.1,1.9,30.61,NE,42,7.0,11.0,75,0.00,,,0.00,meteohub,2013-01-24 08:02:00,
2013-01-24 02:07:00,8.1,1.2,30.61,NE,35,9.0,11.0,74,0.00,,,0.00,meteohub,2013-01-24 08:07:00,
2013-01-24 02:17:00,7.0,0.0,30.61,NNE,31,5.0,12.0,72,0.00,,,0.00,meteohub,2013-01-24 08:17:00,
2013-01-24 02:22:00,7.0,-0.2,30.60,NE,38,7.0,12.0,72,0.00,,,0.00,meteohub,2013-01-24 08:22:00,
2013-01-24 02:27:00,7.0,-0.2,30.61,NE,49,9.0,11.0,72,0.00,,,0.00,meteohub,2013-01-24 08:27:00,
2013-01-24 02:32:00,7.0,-0.2,30.61,NE,35,9.0,11.0,72,0.00,,,0.00,meteohub,2013-01-24 08:32:00,
2013-01-24 02:42:00,7.0,-0.2,30.60,NE,54,9.0,11.0,73,0.00,,,0.00,meteohub,2013-01-24 08:42:00,
2013-01-24 02:47:00,6.1,-0.4,30.60,NE,35,7.0,12.0,74,0.00,,,0.00,meteohub,2013-01-24 08:47:00,
2013-01-24 02:52:00,6.1,-0.4,30.60,NNE,32,9.0,13.0,74,0.00,,,0.00,meteohub,2013-01-24 08:52:00,
2013-01-24 03:02:00,6.1,-0.4,30.60,NE,48,4.0,13.0,74,0.00,,,0.00,meteohub,2013-01-24 09:02:00,
2013-01-24 03:07:00,6.1,-0.6,30.60,NE,52,9.0,13.0,75,0.00,,,0.00,meteohub,2013-01-24 09:07:00,
2013-01-24 03:12:00,6.1,-0.4,30.61,NE,55,6.0,13.0,75,0.00,,,0.00,meteohub,2013-01-24 09:12:00,
2013-01-24 03:17:00,6.1,-0.6,30.61,NE,43,4.0,13.0,75,0.00,,,0.00,meteohub,2013-01-24 09:17:00,
2013-01-24 03:22:00,6.1,-0.6,30.61,NNE,28,7.0,12.0,75,0.00,,,0.00,meteohub,2013-01-24 09:22:00,
2013-01-24 03:27:00,5.0,-0.8,30.60,NE,41,7.0,12.0,75,0.00,,,0.00,meteohub,2013-01-24 09:27:00,
2013-01-24 03:32:00,5.0,-0.8,30.60,NNE,19,6.0,12.0,75,0.00,,,0.00,meteohub,2013-01-24 09:32:00,
2013-01-24 03:42:00,5.0,-1.1,30.60,NNE,24,7.0,11.0,75,0.00,,,0.00,meteohub,2013-01-24 09:42:00,
2013-01-24 03:47:00,5.0,-1.3,30.60,NE,36,4.0,12.0,75,0.00,,,0.00,meteohub,2013-01-24 09:47:00,
2013-01-24 03:52:00,5.0,-1.5,30.59,NE,34,10.0,12.0,75,0.00,,,0.00,meteohub,2013-01-24 09:52:00,
2013-01-24 03:57:00,5.0,-1.5,30.59,NNE,25,3.0,12.0,75,0.00,,,0.00,meteohub,2013-01-24 09:57:00,
2013-01-24 04:02:00,5.0,-1.5,30.59,NE,56,8.0,12.0,75,0.00,,,0.00,meteohub,2013-01-24 10:02:00,
2013-01-24 04:07:00,5.0,-1.7,30.58,NE,51,3.0,12.0,75,0.00,,,0.00,meteohub,2013-01-24 10:07:00,
2013-01-24 04:12:00,5.0,-1.7,30.58,ENE,73,10.0,12.0,75,0.00,,,0.00,meteohub,2013-01-24 10:12:00,
2013-01-24 04:22:00,3.9,-2.0,30.58,NE,45,7.0,13.0,75,0.00,,,0.00,meteohub,2013-01-24 10:22:00,
2013-01-24 04:27:00,3.9,-1.8,30.57,NE,39,8.0,14.0,76,0.00,,,0.00,meteohub,2013-01-24 10:27:00,
2013-01-24 04:32:00,3.9,-2.0,30.58,NE,44,7.0,15.0,76,0.00,,,0.00,meteohub,2013-01-24 10:32:00,
2013-01-24 04:37:00,3.9,-2.0,30.57,NE,36,9.0,15.0,76,0.00,,,0.00,meteohub,2013-01-24 10:37:00,
2013-01-24 04:42:00,3.9,-2.2,30.58,NE,38,6.0,15.0,76,0.00,,,0.00,meteohub,2013-01-24 10:42:00,
2013-01-24 04:47:00,3.9,-2.2,30.58,NE,36,8.0,11.0,76,0.00,,,0.00,meteohub,2013-01-24 10:47:00,
2013-01-24 04:52:00,3.9,-1.8,30.58,NE,35,6.0,11.0,76,0.00,,,0.00,meteohub,2013-01-24 10:52:00,
2013-01-24 04:57:00,3.9,-1.8,30.58,NE,38,7.0,11.0,76,0.00,,,0.00,meteohub,2013-01-24 10:57:00,
2013-01-24 05:02:00,3.9,-2.0,30.58,NE,39,5.0,10.0,76,0.00,,,0.00,meteohub,2013-01-24 11:02:00,
2013-01-24 05:07:00,3.9,-2.0,30.57,NE,43,5.0,10.0,77,0.00,,,0.00,meteohub,2013-01-24 11:07:00,
2013-01-24 05:12:00,3.9,-2.0,30.57,NE,34,3.0,11.0,77,0.00,,,0.00,meteohub,2013-01-24 11:12:00,
2013-01-24 05:17:00,3.9,-2.0,30.58,NE,49,7.0,11.0,77,0.00,,,0.00,meteohub,2013-01-24 11:17:00,
2013-01-24 05:22:00,3.9,-2.0,30.58,NE,44,1.0,11.0,77,0.00,,,0.00,meteohub,2013-01-24 11:22:00,
2013-01-24 05:27:00,3.9,-2.0,30.58,NE,36,2.0,11.0,77,0.00,,,0.00,meteohub,2013-01-24 11:27:00,
2013-01-24 05:32:00,3.9,-2.0,30.58,NE,46,6.0,9.0,77,0.00,,,0.00,meteohub,2013-01-24 11:32:00,
2013-01-24 05:37:00,3.9,-2.0,30.59,NE,44,6.0,10.0,77,0.00,,,0.00,meteohub,2013-01-24 11:37:00,
2013-01-24 05:42:00,3.9,-2.2,30.59,NNE,32,5.0,10.0,77,0.00,,,0.00,meteohub,2013-01-24 11:42:00,
2013-01-24 05:47:00,3.9,-2.2,30.58,NE,49,5.0,10.0,77,0.00,,,0.00,meteohub,2013-01-24 11:47:00,
2013-01-24 05:52:00,3.9,-2.2,30.58,NE,49,5.0,9.0,77,0.00,,,0.00,meteohub,2013-01-24 11:52:00,
2013-01-24 05:57:00,3.9,-2.2,30.58,NE,47,5.0,10.0,77,0.00,,,0.00,meteohub,2013-01-24 11:57:00,
2013-01-24 06:02:00,3.9,-1.8,30.58,NE,47,7.0,10.0,77,0.00,,,0.00,meteohub,2013-01-24 12:02:00,
2013-01-24 06:07:00,3.9,-1.8,30.58,NE,51,4.0,10.0,77,0.00,,,0.00,meteohub,2013-01-24 12:07:00,
2013-01-24 06:12:00,3.9,-2.0,30.58,NE,53,6.0,9.0,77,0.00,,,0.00,meteohub,2013-01-24 12:12:00,
2013-01-24 06:17:00,3.9,-2.4,30.58,ENE,58,10.0,10.0,76,0.00,,,0.00,meteohub,2013-01-24 12:17:00,
2013-01-24 06:22:00,3.9,-2.4,30.57,ENE,68,4.0,12.0,76,0.00,,,0.00,meteohub,2013-01-24 12:22:00,
2013-01-24 06:27:00,3.9,-2.4,30.58,East,80,6.0,12.0,76,0.00,,,0.00,meteohub,2013-01-24 12:27:00,
2013-01-24 06:32:00,3.9,-2.0,30.57,ENE,78,2.0,10.0,76,0.00,,,0.00,meteohub,2013-01-24 12:32:00,
2013-01-24 06:37:00,3.9,-2.0,30.57,ENE,78,5.0,10.0,76,0.00,,,0.00,meteohub,2013-01-24 12:37:00,
2013-01-24 06:42:00,3.9,-2.0,30.57,East,86,3.0,8.0,77,0.00,,,0.00,meteohub,2013-01-24 12:42:00,
2013-01-24 06:47:00,3.9,-2.4,30.56,East,89,7.0,8.0,76,0.00,,,0.00,meteohub,2013-01-24 12:47:00,
2013-01-24 06:52:00,3.9,-2.6,30.57,ENE,70,5.0,9.0,75,0.00,,,0.00,meteohub,2013-01-24 12:52:00,
2013-01-24 06:57:00,3.9,-2.7,30.57,ENE,77,4.0,9.0,74,0.00,,,0.00,meteohub,2013-01-24 12:57:00,
2013-01-24 07:02:00,3.9,-3.1,30.57,East,86,7.0,9.0,74,0.00,,,0.00,meteohub,2013-01-24 13:02:00,
2013-01-24 07:07:00,3.9,-3.3,30.57,East,82,3.0,9.0,74,0.00,,,0.00,meteohub,2013-01-24 13:07:00,
2013-01-24 07:17:00,3.9,-3.1,30.56,East,84,6.0,7.0,74,0.00,,,0.00,meteohub,2013-01-24 13:17:00,
2013-01-24 07:22:00,3.0,-2.9,30.57,East,96,5.0,8.0,75,0.00,,,0.00,meteohub,2013-01-24 13:22:00,
2013-01-24 07:27:00,3.0,-2.7,30.58,East,88,3.0,8.0,75,0.00,,,0.00,meteohub,2013-01-24 13:27:00,
2013-01-24 07:32:00,3.0,-2.9,30.58,ENE,71,2.0,8.0,75,0.00,,,0.00,meteohub,2013-01-24 13:32:00,
2013-01-24 07:37:00,3.0,-2.9,30.58,East,80,3.0,7.0,75,0.00,,,0.00,meteohub,2013-01-24 13:37:00,
2013-01-24 07:42:00,3.0,-2.9,30.58,ENE,74,3.0,7.0,75,0.00,,,0.00,meteohub,2013-01-24 13:42:00,
2013-01-24 07:47:00,3.0,-2.9,30.58,ENE,68,3.0,7.0,76,0.00,,,0.00,meteohub,2013-01-24 13:47:00,
2013-01-24 07:52:00,3.0,-2.7,30.58,ENE,71,2.0,7.0,76,0.00,,,0.00,meteohub,2013-01-24 13:52:00,
2013-01-24 07:57:00,3.0,-2.7,30.59,ENE,78,2.0,5.0,76,0.00,,,0.00,meteohub,2013-01-24 13:57:00,
2013-01-24 08:02:00,3.0,-2.7,30.59,ENE,71,3.0,5.0,76,0.00,,,0.00,meteohub,2013-01-24 14:02:00,
2013-01-24 08:07:00,3.0,-2.7,30.59,ENE,71,4.0,5.0,76,0.00,,,0.00,meteohub,2013-01-24 14:07:00,
2013-01-24 08:17:00,3.0,-2.6,30.58,East,82,3.0,7.0,76,0.00,,,0.00,meteohub,2013-01-24 14:17:00,
2013-01-24 08:22:00,3.0,-2.4,30.58,East,80,5.0,7.0,77,0.00,,,0.00,meteohub,2013-01-24 14:22:00,
2013-01-24 08:32:00,3.9,-2.0,30.58,East,94,3.0,7.0,77,0.00,,,0.00,meteohub,2013-01-24 14:32:00,
2013-01-24 08:37:00,3.9,-2.2,30.58,North,0,6.0,7.0,77,0.00,,,0.00,meteohub,2013-01-24 14:37:00,
2013-01-24 08:42:00,3.9,-2.0,30.57,East,86,2.0,10.0,76,0.00,,,0.00,meteohub,2013-01-24 14:42:00,
2013-01-24 08:47:00,5.0,-1.8,30.57,ESE,109,3.0,10.0,75,0.00,,,0.00,meteohub,2013-01-24 14:47:00,
2013-01-24 08:52:00,5.0,-1.7,30.58,East,95,7.0,10.0,74,0.00,,,0.00,meteohub,2013-01-24 14:52:00,
2013-01-24 08:57:00,5.0,-2.0,30.57,ESE,102,5.0,10.0,73,0.00,,,0.00,meteohub,2013-01-24 14:57:00,
2013-01-24 09:02:00,5.0,-1.8,30.58,East,98,6.0,12.0,73,0.00,,,0.00,meteohub,2013-01-24 15:02:00,
2013-01-24 09:07:00,5.0,-1.8,30.58,East,88,7.0,12.0,72,0.00,,,0.00,meteohub,2013-01-24 15:07:00,
2013-01-24 09:12:00,6.1,-1.5,30.56,East,98,8.0,12.0,72,0.00,,,0.00,meteohub,2013-01-24 15:12:00,
2013-01-24 09:17:00,6.1,-1.3,30.56,East,80,5.0,12.0,72,0.00,,,0.00,meteohub,2013-01-24 15:17:00,
2013-01-24 09:22:00,6.1,-1.5,30.57,ENE,78,9.0,12.0,72,0.00,,,0.00,meteohub,2013-01-24 15:22:00,
2013-01-24 09:27:00,6.1,-1.5,30.58,ESE,113,9.0,11.0,71,0.00,,,0.00,meteohub,2013-01-24 15:27:00,
2013-01-24 09:32:00,6.1,-1.1,30.58,East,88,6.0,11.0,72,0.00,,,0.00,meteohub,2013-01-24 15:32:00,
2013-01-24 09:37:00,6.1,-1.3,30.58,East,99,5.0,11.0,71,0.00,,,0.00,meteohub,2013-01-24 15:37:00,
2013-01-24 09:42:00,6.1,-0.9,30.58,ESE,102,10.0,11.0,72,0.00,,,0.00,meteohub,2013-01-24 15:42:00,
2013-01-24 09:47:00,7.0,-0.8,30.58,East,96,7.0,11.0,71,0.00,,,0.00,meteohub,2013-01-24 15:47:00,
2013-01-24 09:52:00,7.0,-1.1,30.58,East,94,7.0,11.0,70,0.00,,,0.00,meteohub,2013-01-24 15:52:00,
2013-01-24 09:57:00,7.0,-0.6,30.59,East,101,6.0,11.0,71,0.00,,,0.00,meteohub,2013-01-24 15:57:00,
2013-01-24 10:02:00,7.0,-0.8,30.59,East,90,2.0,11.0,71,0.00,,,0.00,meteohub,2013-01-24 16:02:00,
2013-01-24 10:07:00,7.0,-0.8,30.58,East,82,7.0,12.0,71,0.00,,,0.00,meteohub,2013-01-24 16:07:00,
2013-01-24 10:12:00,8.1,-0.6,30.57,East,80,7.0,13.0,69,0.00,,,0.00,meteohub,2013-01-24 16:12:00,
2013-01-24 10:17:00,8.1,-0.8,30.57,East,88,7.0,13.0,70,0.00,,,0.00,meteohub,2013-01-24 16:17:00,
2013-01-24 10:22:00,8.1,0.0,30.57,East,88,9.0,13.0,69,0.00,,,0.00,meteohub,2013-01-24 16:22:00,
2013-01-24 10:27:00,8.1,-0.2,30.56,ESE,111,7.0,13.0,68,0.00,,,0.00,meteohub,2013-01-24 16:27:00,
2013-01-24 10:32:00,9.0,0.1,30.56,ESE,120,7.0,13.0,68,0.00,,,0.00,meteohub,2013-01-24 16:32:00,
2013-01-24 10:37:00,9.0,0.5,30.56,East,87,10.0,13.0,69,0.00,,,0.00,meteohub,2013-01-24 16:37:00,
2013-01-24 10:42:00,9.0,-0.2,30.56,East,90,7.0,12.0,66,0.00,,,0.00,meteohub,2013-01-24 16:42:00,
2013-01-24 10:47:00,10.0,0.1,30.56,ESE,115,8.0,13.0,67,0.00,,,0.00,meteohub,2013-01-24 16:47:00,
2013-01-24 10:52:00,10.0,0.0,30.56,ESE,105,8.0,13.0,67,0.00,,,0.00,meteohub,2013-01-24 16:52:00,
2013-01-24 10:57:00,10.0,0.5,30.56,SE,134,4.0,13.0,64,0.00,,,0.00,meteohub,2013-01-24 16:57:00,
2013-01-24 11:02:00,10.0,0.3,30.56,SE,134,9.0,12.0,64,0.00,,,0.00,meteohub,2013-01-24 17:02:00,
2013-01-24 11:07:00,10.0,-0.2,30.56,ESE,107,8.0,12.0,65,0.00,,,0.00,meteohub,2013-01-24 17:07:00,
2013-01-24 11:12:00,10.0,-0.2,30.56,ESE,117,3.0,11.0,65,0.00,,,0.00,meteohub,2013-01-24 17:12:00,
2013-01-24 11:17:00,10.0,0.0,30.56,ESE,123,5.0,11.0,66,0.00,,,0.00,meteohub,2013-01-24 17:17:00,
2013-01-24 11:27:00,10.0,0.7,30.55,SE,131,7.0,10.0,65,0.00,,,0.00,meteohub,2013-01-24 17:27:00,
2013-01-24 11:32:00,10.0,0.9,30.55,SE,141,7.0,9.0,64,0.00,,,0.00,meteohub,2013-01-24 17:32:00,
2013-01-24 11:37:00,10.9,0.7,30.54,ESE,118,8.0,13.0,65,0.00,,,0.00,meteohub,2013-01-24 17:37:00,
2013-01-24 11:42:00,10.9,0.5,30.54,ESE,117,9.0,13.0,64,0.00,,,0.00,meteohub,2013-01-24 17:42:00,
2013-01-24 11:47:00,10.9,0.9,30.53,ESE,116,7.0,11.0,62,0.00,,,0.00,meteohub,2013-01-24 17:47:00,
2013-01-24 11:52:00,10.9,1.0,30.52,ESE,118,5.0,11.0,63,0.00,,,0.00,meteohub,2013-01-24 17:52:00,
2013-01-24 11:57:00,12.0,1.6,30.53,ESE,119,9.0,13.0,62,0.00,,,0.00,meteohub,2013-01-24 17:57:00,
2013-01-24 12:07:00,12.0,1.4,30.51,SE,127,11.0,13.0,61,0.00,,,0.00,meteohub,2013-01-24 18:07:00,
2013-01-24 12:17:00,12.9,1.8,30.50,SSE,166,5.0,14.0,60,0.00,,,0.00,meteohub,2013-01-24 18:17:00,
2013-01-24 12:22:00,12.9,1.6,30.48,East,99,7.0,14.0,60,0.00,,,0.00,meteohub,2013-01-24 18:22:00,
2013-01-24 12:27:00,12.9,1.0,30.48,East,92,8.0,13.0,58,0.00,,,0.00,meteohub,2013-01-24 18:27:00,
2013-01-24 12:32:00,12.9,1.4,30.48,East,80,6.0,13.0,59,0.00,,,0.00,meteohub,2013-01-24 18:32:00,
2013-01-24 12:37:00,12.9,1.9,30.48,ESE,109,8.0,13.0,59,0.00,,,0.00,meteohub,2013-01-24 18:37:00,
2013-01-24 12:42:00,12.9,1.4,30.47,SSE,150,6.0,14.0,59,0.00,,,0.00,meteohub,2013-01-24 18:42:00,
2013-01-24 12:47:00,14.0,1.8,30.47,ESE,117,4.0,14.0,59,0.00,,,0.00,meteohub,2013-01-24 18:47:00,
2013-01-24 12:52:00,14.0,1.4,30.47,ESE,123,5.0,14.0,58,0.00,,,0.00,meteohub,2013-01-24 18:52:00,
2013-01-24 13:02:00,14.0,2.1,30.46,SSE,165,6.0,11.0,57,0.00,,,0.00,meteohub,2013-01-24 19:02:00,
2013-01-24 13:07:00,14.0,1.4,30.46,SE,129,9.0,11.0,56,0.00,,,0.00,meteohub,2013-01-24 19:07:00,
2013-01-24 13:12:00,14.0,1.6,30.46,SE,131,2.0,11.0,57,0.00,,,0.00,meteohub,2013-01-24 19:12:00,
2013-01-24 13:17:00,14.0,1.9,30.45,ESE,123,5.0,11.0,56,0.00,,,0.00,meteohub,2013-01-24 19:17:00,
2013-01-24 13:22:00,15.1,1.2,30.45,SSE,148,5.0,12.0,56,0.00,,,0.00,meteohub,2013-01-24 19:22:00,
2013-01-24 13:32:00,15.1,1.9,30.44,South,169,6.0,12.0,55,0.00,,,0.00,meteohub,2013-01-24 19:32:00,
2013-01-24 13:37:00,15.1,1.4,30.44,ESE,116,4.0,10.0,56,0.00,,,0.00,meteohub,2013-01-24 19:37:00,
2013-01-24 13:42:00,15.1,1.4,30.43,South,183,9.0,10.0,54,0.00,,,0.00,meteohub,2013-01-24 19:42:00,
2013-01-24 13:47:00,15.1,1.4,30.42,SE,141,5.0,10.0,55,0.00,,,0.00,meteohub,2013-01-24 19:47:00,
2013-01-24 13:52:00,15.1,1.4,30.41,ESE,115,5.0,10.0,55,0.00,,,0.00,meteohub,2013-01-24 19:52:00,
2013-01-24 13:57:00,15.1,2.1,30.41,SE,140,8.0,9.0,55,0.00,,,0.00,meteohub,2013-01-24 19:57:00,
2013-01-24 14:02:00,15.1,2.1,30.40,SE,144,7.0,11.0,55,0.00,,,0.00,meteohub,2013-01-24 20:02:00,
2013-01-24 14:07:00,15.1,1.8,30.41,SE,145,4.0,11.0,55,0.00,,,0.00,meteohub,2013-01-24 20:07:00,
2013-01-24 14:12:00,16.0,1.9,30.41,ESE,109,5.0,11.0,56,0.00,,,0.00,meteohub,2013-01-24 20:12:00,
2013-01-24 14:17:00,16.0,1.6,30.40,SE,132,7.0,10.0,54,0.00,,,0.00,meteohub,2013-01-24 20:17:00,
2013-01-24 14:22:00,16.0,1.6,30.40,SSE,148,2.0,9.0,54,0.00,,,0.00,meteohub,2013-01-24 20:22:00,
2013-01-24 14:27:00,16.0,1.6,30.39,ESE,123,4.0,9.0,54,0.00,,,0.00,meteohub,2013-01-24 20:27:00,
2013-01-24 14:32:00,16.0,2.1,30.38,SE,144,4.0,9.0,54,0.00,,,0.00,meteohub,2013-01-24 20:32:00,
2013-01-24 14:37:00,16.0,1.8,30.37,SE,135,6.0,9.0,54,0.00,,,0.00,meteohub,2013-01-24 20:37:00,
2013-01-24 14:42:00,16.0,1.9,30.37,SE,128,4.0,9.0,54,0.00,,,0.00,meteohub,2013-01-24 20:42:00,
2013-01-24 14:47:00,16.0,1.9,30.37,South,172,4.0,9.0,53,0.00,,,0.00,meteohub,2013-01-24 20:47:00,
2013-01-24 14:52:00,16.0,1.8,30.37,SE,142,7.0,9.0,54,0.00,,,0.00,meteohub,2013-01-24 20:52:00,
2013-01-24 14:57:00,16.0,2.5,30.36,SE,124,7.0,9.0,54,0.00,,,0.00,meteohub,2013-01-24 20:57:00,
2013-01-24 15:02:00,16.0,2.5,30.36,ESE,108,5.0,9.0,54,0.00,,,0.00,meteohub,2013-01-24 21:02:00,
2013-01-24 15:07:00,16.0,2.1,30.36,ESE,118,5.0,10.0,54,0.00,,,0.00,meteohub,2013-01-24 21:07:00,
2013-01-24 15:17:00,17.1,2.1,30.35,SE,134,1.0,11.0,53,0.00,,,0.00,meteohub,2013-01-24 21:17:00,
2013-01-24 15:22:00,17.1,2.3,30.35,SSE,153,7.0,11.0,54,0.00,,,0.00,meteohub,2013-01-24 21:22:00,
2013-01-24 15:27:00,17.1,2.3,30.35,SSE,165,6.0,11.0,52,0.00,,,0.00,meteohub,2013-01-24 21:27:00,
2013-01-24 15:32:00,17.1,1.8,30.35,SE,143,6.0,10.0,53,0.00,,,0.00,meteohub,2013-01-24 21:32:00,
2013-01-24 15:37:00,17.1,2.3,30.35,SE,137,4.0,10.0,52,0.00,,,0.00,meteohub,2013-01-24 21:37:00,
2013-01-24 15:42:00,17.1,2.3,30.35,SE,146,5.0,9.0,53,0.00,,,0.00,meteohub,2013-01-24 21:42:00,
2013-01-24 15:52:00,17.1,2.5,30.35,SE,127,3.0,9.0,53,0.00,,,0.00,meteohub,2013-01-24 21:52:00,
2013-01-24 15:57:00,17.1,2.5,30.35,ESE,122,7.0,9.0,53,0.00,,,0.00,meteohub,2013-01-24 21:57:00,
2013-01-24 16:02:00,17.1,2.7,30.35,SSE,150,4.0,9.0,53,0.00,,,0.00,meteohub,2013-01-24 22:02:00,
2013-01-24 16:07:00,17.1,2.5,30.35,SE,125,3.0,10.0,53,0.00,,,0.00,meteohub,2013-01-24 22:07:00,
2013-01-24 16:12:00,17.1,3.2,30.35,SE,146,3.0,10.0,53,0.00,,,0.00,meteohub,2013-01-24 22:12:00,
2013-01-24 16:17:00,17.1,2.7,30.34,SSE,149,1.0,10.0,53,0.00,,,0.00,meteohub,2013-01-24 22:17:00,
2013-01-24 16:22:00,17.1,2.8,30.34,SE,133,3.0,10.0,54,0.00,,,0.00,meteohub,2013-01-24 22:22:00,
2013-01-24 16:27:00,17.1,3.2,30.33,SE,132,5.0,9.0,54,0.00,,,0.00,meteohub,2013-01-24 22:27:00,
2013-01-24 16:32:00,17.1,3.4,30.33,ESE,122,4.0,8.0,53,0.00,,,0.00,meteohub,2013-01-24 22:32:00,
2013-01-24 16:37:00,18.0,3.2,30.33,SSE,153,2.0,8.0,53,0.00,,,0.00,meteohub,2013-01-24 22:37:00,
2013-01-24 16:42:00,18.0,3.2,30.32,SE,140,2.0,8.0,53,0.00,,,0.00,meteohub,2013-01-24 22:42:00,
2013-01-24 16:47:00,18.0,3.2,30.32,SSE,153,3.0,9.0,53,0.00,,,0.00,meteohub,2013-01-24 22:47:00,
2013-01-24 16:52:00,18.0,3.2,30.32,SE,130,4.0,9.0,53,0.00,,,0.00,meteohub,2013-01-24 22:52:00,
2013-01-24 16:57:00,18.0,3.7,30.31,SE,139,4.0,10.0,54,0.00,,,0.00,meteohub,2013-01-24 22:57:00,
2013-01-24 17:02:00,18.0,3.9,30.31,SSE,152,7.0,10.0,54,0.00,,,0.00,meteohub,2013-01-24 23:02:00,
2013-01-24 17:07:00,18.0,3.6,30.31,SE,136,3.0,10.0,53,0.00,,,0.00,meteohub,2013-01-24 23:07:00,
2013-01-24 17:12:00,18.0,3.6,30.30,ESE,119,11.0,11.0,53,0.00,,,0.00,meteohub,2013-01-24 23:12:00,
2013-01-24 17:17:00,18.0,3.9,30.30,SE,131,4.0,11.0,53,0.00,,,0.00,meteohub,2013-01-24 23:17:00,
2013-01-24 17:22:00,18.0,3.6,30.30,SE,131,2.0,11.0,54,0.00,,,0.00,meteohub,2013-01-24 23:22:00,
2013-01-24 17:27:00,18.0,3.6,30.30,ESE,119,9.0,11.0,54,0.00,,,0.00,meteohub,2013-01-24 23:27:00,
2013-01-24 17:32:00,18.0,3.9,30.30,SE,128,4.0,11.0,54,0.00,,,0.00,meteohub,2013-01-24 23:32:00,
2013-01-24 17:37:00,18.0,3.6,30.29,SE,140,5.0,12.0,54,0.00,,,0.00,meteohub,2013-01-24 23:37:00,
2013-01-24 17:42:00,18.0,4.1,30.30,SE,124,6.0,12.0,54,0.00,,,0.00,meteohub,2013-01-24 23:42:00,
2013-01-24 17:47:00,18.0,3.9,30.29,ESE,121,7.0,12.0,54,0.00,,,0.00,meteohub,2013-01-24 23:47:00,
2013-01-24 17:52:00,18.0,3.9,30.29,ESE,120,4.0,11.0,55,0.00,,,0.00,meteohub,2013-01-24 23:52:00,
2013-01-24 17:57:00,18.0,3.9,30.29,SE,138,11.0,12.0,54,0.00,,,0.00,meteohub,2013-01-24 23:57:00,
2013-01-24 18:07:00,18.0,4.5,30.29,ESE,116,9.0,12.0,55,0.00,,,0.00,meteohub,2013-01-25 00:07:00,
2013-01-24 18:12:00,18.0,4.5,30.29,SE,129,5.0,12.0,55,0.00,,,0.00,meteohub,2013-01-25 00:12:00,
2013-01-24 18:17:00,18.0,4.1,30.30,SSE,148,6.0,11.0,55,0.00,,,0.00,meteohub,2013-01-25 00:17:00,
2013-01-24 18:27:00,18.0,4.3,30.30,SE,135,6.0,10.0,55,0.00,,,0.00,meteohub,2013-01-25 00:27:00,
2013-01-24 18:37:00,18.0,4.3,30.29,SSE,153,6.0,10.0,54,0.00,,,0.00,meteohub,2013-01-25 00:37:00,
2013-01-24 18:42:00,18.0,4.8,30.29,SE,132,4.0,10.0,54,0.00,,,0.00,meteohub,2013-01-25 00:42:00,
2013-01-24 18:47:00,19.0,4.5,30.29,SE,128,5.0,10.0,54,0.00,,,0.00,meteohub,2013-01-25 00:47:00,
2013-01-24 18:52:00,19.0,4.5,30.29,SE,135,5.0,10.0,54,0.00,,,0.00,meteohub,2013-01-25 00:52:00,
2013-01-24 18:57:00,19.0,4.5,30.29,SE,139,1.0,11.0,54,0.00,,,0.00,meteohub,2013-01-25 00:57:00,
2013-01-24 19:02:00,19.0,4.6,30.30,SE,145,1.0,11.0,54,0.00,,,0.00,meteohub,2013-01-25 01:02:00,
2013-01-24 19:07:00,19.0,4.8,30.30,SSE,153,7.0,11.0,54,0.00,,,0.00,meteohub,2013-01-25 01:07:00,
2013-01-24 19:12:00,19.0,4.8,30.30,SE,127,2.0,10.0,54,0.00,,,0.00,meteohub,2013-01-25 01:12:00,
2013-01-24 19:17:00,19.0,4.8,30.29,ESE,111,2.0,10.0,54,0.00,,,0.00,meteohub,2013-01-25 01:17:00,
2013-01-24 19:22:00,19.0,4.8,30.29,SE,127,5.0,10.0,55,0.00,,,0.00,meteohub,2013-01-25 01:22:00,
2013-01-24 19:27:00,19.0,5.2,30.28,SE,128,4.0,9.0,55,0.00,,,0.00,meteohub,2013-01-25 01:27:00,
2013-01-24 19:32:00,19.0,5.0,30.28,SE,135,6.0,9.0,54,0.00,,,0.00,meteohub,2013-01-25 01:32:00,
2013-01-24 19:37:00,19.0,5.4,30.28,SE,144,3.0,9.0,55,0.00,,,0.00,meteohub,2013-01-25 01:37:00,
2013-01-24 19:42:00,19.0,5.0,30.27,SSE,153,5.0,9.0,55,0.00,,,0.00,meteohub,2013-01-25 01:42:00,
2013-01-24 19:47:00,19.0,5.0,30.26,SE,142,6.0,9.0,54,0.00,,,0.00,meteohub,2013-01-25 01:47:00,
2013-01-24 19:52:00,19.0,5.0,30.27,ESE,120,1.0,9.0,54,0.00,,,0.00,meteohub,2013-01-25 01:52:00,
2013-01-24 19:57:00,19.0,5.2,30.27,SE,138,0.0,9.0,54,0.00,,,0.00,meteohub,2013-01-25 01:57:00,
2013-01-24 20:02:00,19.0,5.2,30.28,SSE,155,6.0,9.0,55,0.00,,,0.00,meteohub,2013-01-25 02:02:00,
2013-01-24 20:07:00,19.0,5.2,30.28,SSE,165,2.0,8.0,54,0.00,,,0.00,meteohub,2013-01-25 02:07:00,
2013-01-24 20:12:00,19.0,5.4,30.29,SE,145,2.0,8.0,55,0.00,,,0.00,meteohub,2013-01-25 02:12:00,
2013-01-24 20:17:00,19.0,5.4,30.29,SSE,147,5.0,8.0,54,0.00,,,0.00,meteohub,2013-01-25 02:17:00,
2013-01-24 20:22:00,19.9,5.7,30.27,SSE,154,3.0,8.0,54,0.00,,,0.00,meteohub,2013-01-25 02:22:00,
2013-01-24 20:27:00,19.9,5.9,30.27,SE,144,5.0,8.0,55,0.00,,,0.00,meteohub,2013-01-25 02:27:00,
2013-01-24 20:32:00,19.9,5.5,30.27,SSE,154,3.0,8.0,55,0.00,,,0.00,meteohub,2013-01-25 02:32:00,
2013-01-24 20:37:00,19.9,5.9,30.28,SE,142,2.0,8.0,55,0.00,,,0.00,meteohub,2013-01-25 02:37:00,
2013-01-24 20:42:00,19.9,5.7,30.28,SSE,148,2.0,8.0,55,0.00,,,0.00,meteohub,2013-01-25 02:42:00,
2013-01-24 20:47:00,19.9,5.7,30.28,SE,135,3.0,8.0,55,0.00,,,0.00,meteohub,2013-01-25 02:47:00,
2013-01-24 20:52:00,19.9,6.1,30.28,SE,136,4.0,6.0,54,0.00,,,0.00,meteohub,2013-01-25 02:52:00,
2013-01-24 21:02:00,19.9,6.3,30.27,SE,136,1.0,5.0,55,0.00,,,0.00,meteohub,2013-01-25 03:02:00,
2013-01-24 21:07:00,19.9,6.3,30.27,SE,144,0.0,5.0,55,0.00,,,0.00,meteohub,2013-01-25 03:07:00,
2013-01-24 21:12:00,19.9,6.3,30.27,SE,144,4.0,6.0,56,0.00,,,0.00,meteohub,2013-01-25 03:12:00,
2013-01-24 21:17:00,19.9,6.4,30.27,South,174,3.0,6.0,56,0.00,,,0.00,meteohub,2013-01-25 03:17:00,
2013-01-24 21:22:00,19.9,6.1,30.27,SSE,160,3.0,6.0,55,0.00,,,0.00,meteohub,2013-01-25 03:22:00,
2013-01-24 21:27:00,19.9,6.1,30.27,SSE,159,4.0,7.0,55,0.00,,,0.00,meteohub,2013-01-25 03:27:00,
2013-01-24 21:32:00,19.9,6.1,30.29,SSE,159,0.0,7.0,55,0.00,,,0.00,meteohub,2013-01-25 03:32:00,
2013-01-24 21:37:00,19.9,6.8,30.28,SSE,159,0.0,5.0,55,0.00,,,0.00,meteohub,2013-01-25 03:37:00,
2013-01-24 21:47:00,21.0,6.8,30.30,SSE,159,0.0,2.0,56,0.00,,,0.00,meteohub,2013-01-25 03:47:00,
2013-01-24 21:52:00,21.0,6.4,30.31,SSE,159,0.0,2.0,55,0.00,,,0.00,meteohub,2013-01-25 03:52:00,
2013-01-24 21:57:00,21.0,6.8,30.30,SSE,159,0.0,2.0,56,0.00,,,0.00,meteohub,2013-01-25 03:57:00,
2013-01-24 22:02:00,21.0,7.7,30.30,SSE,159,0.0,1.0,55,0.00,,,0.00,meteohub,2013-01-25 04:02:00,
2013-01-24 22:07:00,21.0,7.7,30.30,SSE,159,0.0,1.0,57,0.00,,,0.00,meteohub,2013-01-25 04:07:00,
2013-01-24 22:12:00,19.9,8.1,30.29,SSE,159,1.0,2.0,57,0.00,,,0.00,meteohub,2013-01-25 04:12:00,
2013-01-24 22:17:00,19.9,7.5,30.30,SSE,159,0.0,2.0,57,0.00,,,0.00,meteohub,2013-01-25 04:17:00,
2013-01-24 22:22:00,19.9,7.5,30.30,SSE,159,0.0,2.0,58,0.00,,,0.00,meteohub,2013-01-25 04:22:00,
2013-01-24 22:27:00,19.9,7.5,30.29,SSE,159,1.0,2.0,58,0.00,,,0.00,meteohub,2013-01-25 04:27:00,
2013-01-24 22:32:00,19.9,7.7,30.28,SSE,159,1.0,2.0,58,0.00,,,0.00,meteohub,2013-01-25 04:32:00,
2013-01-24 22:37:00,19.9,7.3,30.28,SSE,159,1.0,2.0,59,0.00,,,0.00,meteohub,2013-01-25 04:37:00,
2013-01-24 22:42:00,19.9,7.5,30.27,SSE,159,1.0,3.0,60,0.00,,,0.00,meteohub,2013-01-25 04:42:00,
2013-01-24 22:47:00,19.9,7.9,30.26,SSE,153,0.0,4.0,60,0.00,,,0.00,meteohub,2013-01-25 04:47:00,
2013-01-24 22:52:00,19.9,7.5,30.27,SSE,153,2.0,4.0,60,0.00,,,0.00,meteohub,2013-01-25 04:52:00,
2013-01-24 22:57:00,19.9,7.9,30.27,SSE,153,0.0,4.0,60,0.00,,,0.00,meteohub,2013-01-25 04:57:00,
2013-01-24 23:02:00,19.9,7.7,30.28,SSE,153,1.0,3.0,61,0.00,,,0.00,meteohub,2013-01-25 05:02:00,
2013-01-24 23:07:00,19.9,7.7,30.27,SSE,153,2.0,3.0,60,0.00,,,0.00,meteohub,2013-01-25 05:07:00,
2013-01-24 23:12:00,19.9,7.5,30.28,SSE,153,1.0,3.0,60,0.00,,,0.00,meteohub,2013-01-25 05:12:00,
2013-01-24 23:17:00,19.0,7.7,30.28,SSE,153,2.0,3.0,61,0.00,,,0.00,meteohub,2013-01-25 05:17:00,
2013-01-24 23:22:00,19.0,8.1,30.29,SSE,153,0.0,3.0,61,0.00,,,0.00,meteohub,2013-01-25 05:22:00,
2013-01-24 23:27:00,19.0,7.9,30.27,SSE,153,2.0,3.0,63,0.00,,,0.00,meteohub,2013-01-25 05:27:00,
2013-01-24 23:32:00,19.0,7.7,30.28,SSE,153,2.0,3.0,64,0.00,,,0.00,meteohub,2013-01-25 05:32:00,
2013-01-24 23:37:00,19.0,8.4,30.30,SSE,153,2.0,3.0,65,0.00,,,0.00,meteohub,2013-01-25 05:37:00,
2013-01-24 23:42:00,19.0,8.2,30.30,SSE,153,0.0,3.0,67,0.00,,,0.00,meteohub,2013-01-25 05:42:00,
2013-01-24 23:47:00,19.0,8.1,30.29,SSE,153,2.0,3.0,66,0.00,,,0.00,meteohub,2013-01-25 05:47:00,
2013-01-24 23:52:00,18.0,7.5,30.30,SSE,153,0.0,2.0,66,0.00,,,0.00,meteohub,2013-01-25 05:52:00,
2013-01-24 23:57:00,18.0,7.7,30.29,SSE,153,1.0,2.0,67,0.00,,,0.00,meteohub,2013-01-25 05:57:00,